Home   Weather   Colonia   Past weeks

Flag for Micronesia Past Weather in Colonia, Yap, Micronesia — Yesterday and Last 2 Weeks

83 °F

Broken clouds.

Feels Like: 93 °F
Forecast: 80 / 90 °F
Wind: 7 mph from North

Location: Yap Island

Current Time: Oct 24, 2016 at 3:12:11 PM

Latest Report: Oct 24, 2016 at 1:53 PM

Visibility: 12 mi

Pressure: 29.75 "Hg

Humidity: 80%

Dew Point: 77 °F

Location of ColoniaLocation

Past Weather in Colonia — Graph


Colonia Temperature Yesterday

Maximum temperature yesterday: 89 °F (at 12:56 PM)
Minimum temperature yesterday: 81 °F (at 12:50 AM)
Average temperature yesterday: 84 °F

High & Low Weather Summary for the Past Weeks

High89 °F (Oct 23, 12:56 PM)96% (Oct 13, 11:50 PM)29.88 "Hg (Oct 13, 11:50 PM)
Low76 °F (Oct 12, 6:54 PM)70% (Oct 23, 12:56 PM)29.53 "Hg (Oct 16, 3:02 PM)
Average82 °F86%29.77 "Hg
* Reported Oct 9 1:50 PM — Oct 24 1:53 PM, Colonia, Weather by CustomWeather, © 2016

Note: Actual official high and low records may vary slightly from our data, if they occured in-between our weather recording intervals... More about our weather records


Colonia Weather History for the Previous 24 Hours

Scroll right to see more
Time TempWeatherWind HumidityBarometerVisibility
1:53 PM
Mon, Oct 24
83 °FBroken clouds.7 mph80%29.75 "Hg12 mi
12:51 PM85 °FScattered showers. Broken clouds.9 mph83%29.78 "Hg12 mi
11:51 AM84 °FBroken clouds.7 mph86%29.80 "Hg12 mi
10:56 AM84 °FScattered showers. Broken clouds.7 mph88%29.81 "Hg12 mi
9:53 AM80 °FBroken clouds.No wind96%29.83 "Hg12 mi
8:52 AM79 °FSprinkles. Cloudy.5 mph95%29.84 "Hg9 mi
7:53 AM79 °FBroken clouds.6 mph92%29.83 "Hg12 mi
6:52 AM81 °FPartly cloudy.7 mph90%29.80 "Hg12 mi
5:53 AM81 °FPartly cloudy.6 mph90%29.78 "Hg12 mi
4:52 AM81 °FPartly cloudy.8 mph89%29.76 "Hg12 mi
3:51 AM81 °FPassing clouds.7 mph89%29.76 "Hg12 mi
2:50 AM81 °FPassing clouds.7 mph89%29.78 "Hg12 mi
1:50 AM81 °FPassing clouds.8 mph89%29.79 "Hg12 mi
12:50 AM82 °FPartly cloudy.5 mph87%29.80 "Hg12 mi
11:50 PM
Sun, Oct 23
81 °FPartly cloudy.5 mph87%29.82 "Hg12 mi
10:50 PM82 °FPartly cloudy.6 mph86%29.81 "Hg12 mi
9:50 PM82 °FPartly cloudy.6 mph85%29.82 "Hg12 mi
8:50 PM82 °FPartly cloudy.6 mph85%29.80 "Hg12 mi
7:50 PM82 °FPartly cloudy.6 mph87%29.80 "Hg12 mi
6:50 PM82 °FBroken clouds.6 mph87%29.79 "Hg12 mi
5:50 PM84 °FScattered showers. Broken clouds.6 mph80%29.76 "Hg12 mi
4:51 PM86 °FBroken clouds.5 mph76%29.76 "Hg12 mi
3:53 PM86 °FScattered showers. Broken clouds.9 mph77%29.76 "Hg12 mi
Weather by CustomWeather, © 2016

See weather overviewHow to use our weather pages